Location: Pontbriand
(46.1542°N, 71.2542°W)
Time: 23:58:04
(UTC+00:00)

Envisat - Pass Details

Date: 01 December 2021
Orbit: 764 x 766 km, 98.2° (Epoch: 19 January)

Event Time Altitude Azimuth Distance (km) Brightness Sun altitude
Rises 10:43:03 0° 6° (N) 3,245 6.1 -14.1°
Reaches altitude 10° 10:45:31 10° 357° (N) 2,314 5.3 -13.7°
Maximum altitude 10:50:06 35° 293° (WNW) 1,228 3.5 -12.9°
Drops below altitude 10° 10:54:40 10° 229° (SW) 2,299 5.2 -12.2°
Sets 10:57:07 0° 221° (SW) 3,220 6.0 -11.8°
